Preview of NWS' New Version of Forecast
This preview is not operational and should not be used for support decisions.

Regional Weather Roundup (RWR)

Issued by National Weather Service (NWS)

                            
000
ASUS45 KBOU 190610
RWRCO 

WEATHER ROUNDUP FOR COLORADO
NATIONAL WEATHER SERVICE DENVER/BOULDER CO
1200 AM MDT WED JUN 19 2019

NOTE: "FAIR" INDICATES FEW OR NO CLOUDS BELOW 12000 FEET WITH NO
SIGNIFICANT WEATHER AND/OR OBSTRUCTIONS TO VISIBILITY.

COZ001>005-013-030-031-190700-
...NORTHWEST COLORADO...
  
CITY           SKY/WX    TMP DP  RH WIND       PRES   REMARKS
CRAIG          CLOUDY    51  47  86 E6        30.14F                  
HAYDEN         MOCLDY    48  46  93 E12       30.18F                  
MEEKER         MOCLDY    51  46  83 CALM      30.18S                  
RANGELY        LGT RAIN  57  54  88 SE3       30.09F                  
RABBIT EARS PA NOT AVBL                                               
STEAMBOAT SPGS MOCLDY    45  45 100 CALM      30.19F                  
WALDEN         CLOUDY    43  39  87 E7        30.23F                  
$$

COZ006>008-011-190700-
...WEST CENTRAL VALLEYS...
  
CITY           SKY/WX    TMP DP  RH WIND       PRES   REMARKS
GRAND JUNCTION FAIR      61  50  67 E14       30.10R                  
MONTROSE       MOCLDY    54  47  77 S9        30.17F                  
EAGLE          CLOUDY    51  48  89 SE3       30.24S                  
RIFLE          LGT RAIN  54  52  93 CALM      30.17F                  
DELTA          FAIR      60  49  66 NE6       30.14F                  
NUCLA          FAIR      54  46  76 SE6       30.19S                  
$$

COZ017>023-064>068-190700-
...SOUTHWEST COLORADO...
  
CITY           SKY/WX    TMP DP  RH WIND       PRES   REMARKS
DURANGO        FAIR      52  39  61 CALM      30.17S                  
CORTEZ         FAIR      51  44  77 E3        30.14S                  
PAGOSA SPRINGS FAIR      47  40  76 CALM      30.23F                  
TELLURIDE      FAIR      43  43 100 SE5       30.35F                  
WOLF CREEK PAS FAIR      36  32  87 N3        30.50F                  
$$

COZ009-010-012-014-032>034-037-058>063-190700-
...CENTRAL COLORADO...
  
CITY           SKY/WX    TMP DP  RH WIND       PRES   REMARKS
ASPEN          CLOUDY    47  42  83 SE8       30.25F                  
BUENA VISTA    FAIR      51  37  58 NW10G17   30.24F                  
COPPER MTN     FOG       37  36  93 W17       30.42F VSB<1/4          
BERTHOUD PASS  CLOUDY    32  21  64 N25G33    30.41R WCI  19          
COTTONWOOD PAS FAIR      46  34  61 W18G25    30.33S                  
GUNNISON       LGT RAIN  48  46  93 MISG      30.26F                  
GRANBY         CLOUDY    46  44  93 CALM      30.26F                  
KREMMLING      NOT AVBL                                               
LEADVILLE      MOCLDY    39  35  86 N6        30.33F                  
MONARCH PASS   FOG       34  34 100 MISG      30.54S VSB<1/4          
SALIDA         FAIR      55  41  58 NW6       30.29F                  
SUNLIGHT       MOCLDY    36  34  93 W8G16     30.43F                  
WILKERSON PASS FAIR      37  32  81 NW10G16   30.39F                  
$$

COZ069>075-190700-
...SAN LUIS VALLEY/SANGRE DE CRISTO MOUNTAINS...
  
CITY           SKY/WX    TMP DP  RH WIND       PRES   REMARKS
ALAMOSA        FAIR      49  41  74 W8        30.22F                  
DEL NORTE      CLOUDY    51  39  63 W7        30.26S                  
LA VETA PASS   NOT AVBL                                               
SAGUACHE       CLOUDY    46  43  87 CALM      30.26F                  
$$

COZ035-036-038>040-190700-
...NORTHERN COLORADO FRONT RANGE...
  
CITY           SKY/WX    TMP DP  RH WIND       PRES   REMARKS
DENVER INTL AP MOCLDY    55  52  89 SW9       30.03F                  
AURORA         PTCLDY    54  52  95 S12       30.05F                  
FRONT RANGE AP FAIR      56  52  85 S10       30.05F                  
ERIE MUNI ARPT FAIR      54  49  84 CALM      30.06F                  
BOULDER MUN AP FAIR      55  50  82 CALM      30.01F                  
CENTENNIAL     FAIR      57  48  72 W10       30.06F                  
BROOMFIELD     FAIR      59  41  51 NW7       30.05F                  
FORT COLLINS   NOT AVBL                                               
LONGMONT       FAIR      55  50  86 CALM      30.03F                  
$$

COZ041-046-047-076>085-087-088-190700-
...PIKES PEAK/PALMER DIVIDE AND SOUTHERN FOOTHILLS...
  
CITY           SKY/WX    TMP DP  RH WIND       PRES   REMARKS
COLO. SPRINGS  FAIR      52  48  86 E3        30.10F                  
A. F. ACADEMY  MOCLDY    49  49  99 CALM      30.09F                  
SCHRIEVER AFB  NOT AVBL                                               
CHEYENNE MTN   NOT AVBL                                               
ELLICOTT         N/A    N/A N/A N/A N5        30.07F                  
FALCON         MOCLDY    49  46  90 W7        30.13F                  
FORT CARSON    CLOUDY    53  49  86 N5        30.06F                  
LIMON          FAIR      51  50  96 NW7       30.04S                  
MONUMENT HILL  FAIR      46  45  93 SW7       30.14F                  
CANON CITY     FAIR      54  50  87 W6        30.08F                  
WALSENBURG     NOT AVBL                                               
TRINIDAD       FAIR      52  49  89 NW7       30.09F                  
$$

COZ042>045-048>051-090-091-190700-
...NORTHEAST COLORADO...
  
CITY           SKY/WX    TMP DP  RH WIND       PRES   REMARKS
GREELEY ARPT   FAIR      55  54  96 CALM      30.00F                  
AKRON          FAIR      53  53 100 W6        30.01S                  
BURLINGTON     MOCLDY    61  58  90 E3        29.97F                  
WRAY           HVY RAIN  61  61 100 S5        29.96F                  
YUMA           FAIR      55  46  71 W6        29.98F HAZE             
STERLING       FAIR      54  54 100 SW6       29.96F                  
HOLYOKE        CLOUDY    63  61  94 S5        29.96S                  
FORT MORGAN    MOCLDY    53  51  94 CALM      30.00F FOG              
$$

COZ086-089-092>099-190700-
...SOUTHEAST COLORADO...
  
CITY           SKY/WX    TMP DP  RH WIND       PRES   REMARKS
PUEBLO         FAIR      57  55  93 W6        30.02F                  
LA JUNTA       FAIR      60  57  89 W8        29.98F                  
LAMAR          FAIR      63  61  93 CALM      29.92F                  
SPRINGFIELD      N/A     57  53  86 NW14      29.97S                  
$$